Regional Weather Roundup
Issued by NWS

Home | Current Version | Previous Version | Graphics & Text | Print | Product List | Glossary On
Versions: 1 2 3 4 5 6 7 8 9 10 11 12 13 14 15 16 17 18 19 20 21 22 23 24 25 26 27 28 29 30 31 32 33 34 35 36 37 38 39 40 41 42 43 44 45 46 47 48 49 50
000
ASUS43 KLMK 310802
RWRKY
KENTUCKY REGIONAL WEATHER ROUNDUP
NATIONAL WEATHER SERVICE LOUISVILLE KY
400 AM EDT TUE MAY 31 2016

NOTE "FAIR" INDICATES FEW OR NO CLOUDS BELOW 12,000 FEET
WITH NO SIGNIFICANT WEATHER AND/OR OBSTRUCTIONS TO VISIBILITY.

KYZ001>023-026-027-061>063-070>075-310900-
WESTERN AND SOUTH CENTRAL KENTUCKY

CITY           SKY/WX    TMP DP  RH WIND       PRES   REMARKS
PADUCAH        CLOUDY    66  63  90 CALM      29.94S
HENDERSON      CLOUDY    66  61  82 CALM      29.95S
OWENSBORO      MOCLDY    69  64  84 CALM      29.96S
HOPKINSVILLE   NOT AVBL
BOWLING GREEN  MOCLDY    65  62  90 CALM      29.96S
GLASGOW        NOT AVBL
$$

KYZ024-025-028>034-038-045-046-053-310900-
NORTH CENTRAL KENTUCKY

CITY           SKY/WX    TMP DP  RH WIND       PRES   REMARKS
LOUISVILLE/SDF MOCLDY    69  60  73 CALM      29.96S
LOUISVILLE/LOU PTCLDY    68  60  75 CALM      29.97S
FORT KNOX      NOT AVBL
$$

KYZ035>037-039>044-047>052-055>060-089>105-310900-
NORTHEAST KENTUCKY

CITY           SKY/WX    TMP DP  RH WIND       PRES   REMARKS
LEXINGTON      CLEAR     65  59  81 CALM      29.99F
COVINGTON      PTCLDY    64  59  83 CALM      29.98F
FRANKFORT      CLEAR     62  57  83 CALM      29.97S
$$

KYZ054-064>069-076>088-106>120-310900-
SOUTHEAST KENTUCKY

CITY           SKY/WX    TMP DP  RH WIND       PRES   REMARKS
JACKSON        CLEAR     67  58  72 CALM      30.00S
LONDON         CLEAR     62  59  90 CALM      29.99S
SOMERSET       NOT AVBL
MIDDLESBORO    CLEAR     60  60 100 CALM      30.01S
MONTICELLO     SUNNY     60  60 100 W3        29.99F
$$





USA.gov is the U.S. government's official web portal to all federal, state and local government web resources and services.